Tavèrnoles





Hora UTC 22:25
Temperatura 1.8 ºC
Humedad 96.0 %
Presión 1017.6 hPa
Pluja 0.4 mm
Velocidad viento 0.0 km/h
Dirección viento SSW
Radiación solar 0.0 W/m²

Datos diarios 2019-12-11



Hora UTC (invierno +1h; verano +2h)
Temperatura (ºC) Humedad (%) Presión (hPa) Velocidad viento (km/h) Precipitación (mm) Radiación solar (W/m²)
Hora UTC Aire Humedad Presión Vel. Dir. Vel. Max Dir. Intent. máx 5 min. Rad. Sol.
00:05 -0.7 95.0 1022.9 0.0 SSE 0.0 0.0 0.0
00:10 -0.6 95.0 1022.8 0.0 SSE 0.0 0.0 0.0
00:15 -0.4 95.0 1022.8 0.0 SSE 0.0 0.0 0.0
00:20 -0.3 95.0 1022.8 0.0 SSE 0.0 0.0 0.0
00:25 -0.2 95.0 1022.9 0.0 SSE 0.0 0.0 0.0
00:30 -0.2 95.0 1022.7 0.0 SSE 0.0 0.0 0.0
00:35 -0.3 95.0 1022.7 0.0 SSE 0.0 0.0 0.0
00:40 -0.3 95.0 1022.7 0.0 SSE 0.0 0.0 0.0
00:45 -0.4 95.0 1022.7 0.0 SSE 0.0 0.0 0.0
00:50 -0.5 95.0 1022.7 0.0 SSE 0.0 0.0 0.0
00:55 -0.5 95.0 1022.6 0.0 SSE 0.0 0.0 0.0
01:00 -0.6 95.0 1022.5 0.0 SSE 0.0 0.0 0.0
01:05 -0.7 95.0 1022.5 0.0 SSE 0.0 0.0 0.0
01:10 -0.6 95.0 1022.5 0.0 SSE 0.0 0.0 0.0
01:15 -0.7 95.0 1022.6 0.0 SSE 0.0 0.0 0.0
01:20 -0.7 95.0 1022.5 0.0 SSE 0.0 0.0 0.0
01:25 -0.6 95.0 1022.5 0.0 SSE 0.0 0.0 0.0
01:30 -0.7 95.0 1022.4 0.0 SSE 0.0 0.0 0.0
01:35 -0.7 95.0 1022.4 0.0 SSE 0.0 0.0 0.0
01:40 -0.7 95.0 1022.6 0.0 SSE 0.0 0.0 0.0
01:45 -0.7 95.0 1022.4 0.0 SSE 0.0 0.0 0.0
01:50 -0.8 95.0 1022.4 0.0 SSE 0.0 0.0 0.0
01:55 -0.8 95.0 1022.3 0.0 SSE 0.0 0.0 0.0
02:00 -0.8 95.0 1022.1 0.0 SSE 0.0 0.0 0.0
02:05 -0.9 95.0 1022.0 0.0 SSE 0.0 0.0 0.0
02:10 -0.9 95.0 1022.1 0.0 SSE 0.0 0.0 0.0
02:15 -1.0 95.0 1022.2 0.0 SSE 0.0 0.0 0.0
02:20 -1.0 95.0 1022.3 0.0 SSE 0.0 0.0 0.0
02:25 -0.9 95.0 1022.2 0.0 SSE 0.0 0.0 0.0
02:30 -0.9 95.0 1022.0 0.0 SSE 0.0 0.0 0.0
02:35 -1.0 95.0 1021.9 0.0 SSE 0.0 0.0 0.0
02:40 -0.9 95.0 1021.8 0.0 SSE 0.0 0.0 0.0
02:45 -1.0 95.0 1021.9 0.0 SSE 0.0 0.0 0.0
02:50 -1.1 95.0 1021.8 0.0 SSE 0.0 0.0 0.0
02:55 -1.0 95.0 1021.7 0.0 SSE 0.0 0.0 0.0
03:00 -1.0 95.0 1021.6 0.0 SSE 0.0 0.0 0.0
03:05 -1.0 95.0 1021.6 0.0 SSE 0.0 0.0 0.0
03:10 -1.0 95.0 1021.6 0.0 SSE 0.0 0.0 0.0
03:15 -1.1 95.0 1021.6 0.0 SSE 0.0 0.0 0.0
03:20 -1.1 95.0 1021.5 0.0 SSE 0.0 0.0 0.0
03:25 -1.1 95.0 1021.6 0.0 SSE 0.0 0.0 0.0
03:30 -1.2 95.0 1021.5 0.0 SSE 0.0 0.0 0.0
03:35 -1.2 95.0 1021.5 0.0 SSE 0.0 0.0 0.0
03:40 -1.2 95.0 1021.4 0.0 SSE 0.0 0.0 0.0
03:45 -1.2 95.0 1021.3 0.0 SSE 0.0 0.0 0.0
03:50 -1.2 95.0 1021.4 0.0 SSE 0.0 0.0 0.0
03:55 -1.3 95.0 1021.3 0.0 SSE 0.0 0.0 0.0
04:00 -1.3 95.0 1021.2 0.0 SSE 0.0 0.0 0.0
04:05 -1.4 95.0 1021.1 0.0 SSE 0.0 0.0 0.0
04:10 -1.4 95.0 1021.0 0.0 SSE 0.0 0.0 0.0
04:15 -1.3 95.0 1020.8 0.0 SSE 0.0 0.0 0.0
04:20 -1.3 95.0 1020.8 0.0 SSE 0.0 0.0 0.0
04:25 -1.3 96.0 1020.7 0.0 SSE 0.0 0.0 0.0
04:30 -1.2 96.0 1020.8 0.0 SSE 0.0 0.0 0.0
04:35 -1.2 96.0 1020.8 0.0 SSE 0.0 0.0 0.0
04:40 -1.2 96.0 1020.6 0.0 SSE 0.0 0.0 0.0
04:45 -1.2 96.0 1020.5 0.0 SSE 0.0 0.0 0.0
04:50 -1.2 96.0 1020.5 0.0 SSE 0.0 0.0 0.0
04:55 -1.3 95.0 1020.6 0.0 SSE 0.0 0.0 0.0
05:00 -1.3 95.0 1020.5 0.0 SSE 0.0 0.0 0.0
05:05 -1.3 95.0 1020.5 0.0 SSE 0.0 0.0 0.0
05:10 -1.3 95.0 1020.4 0.0 SSE 0.0 0.0 0.0
05:15 -1.3 96.0 1020.3 0.0 SSE 0.0 0.0 0.0
05:20 -1.3 95.0 1020.1 0.0 SSE 0.0 0.0 0.0
05:25 -1.3 96.0 1020.1 0.0 SSE 0.0 0.0 0.0
05:30 -1.3 96.0 1020.3 0.0 SSE 0.0 0.0 0.0
05:35 -1.2 96.0 1020.4 0.0 SSE 0.0 0.0 0.0
05:40 -1.1 96.0 1020.2 0.0 SSE 0.0 0.0 0.0
05:45 -0.9 96.0 1020.0 0.0 SSE 0.0 0.0 0.0
05:50 -0.9 96.0 1020.2 0.0 SSE 0.0 0.0 0.0
05:55 -0.8 96.0 1020.0 0.0 SSE 0.0 0.0 0.0
06:00 -0.7 96.0 1019.8 0.0 SSE 0.0 0.0 0.0
06:05 -0.7 96.0 1019.8 0.0 SSE 0.0 0.0 0.0
06:10 -0.6 96.0 1019.9 0.0 SSE 0.0 0.0 0.0
06:15 -0.6 96.0 1019.9 0.0 SSE 0.0 0.0 0.0
06:20 -0.5 96.0 1020.0 0.0 SSE 0.0 0.0 0.0
06:25 -0.6 96.0 1020.0 0.0 SSE 0.0 0.0 0.0
06:30 -0.6 96.0 1019.9 0.0 SSE 0.0 0.0 0.0
06:35 -0.7 96.0 1020.0 0.0 SSE 0.0 0.0 0.0
06:40 -0.7 95.0 1020.0 0.0 SSE 0.0 0.0 0.0
06:45 -0.8 95.0 1020.1 0.0 SSE 0.0 0.0 0.0
06:50 -0.9 96.0 1019.8 0.0 SSE 0.0 0.0 0.0
06:55 -1.1 96.0 1019.6 0.0 SSE 0.0 0.0 0.0
07:00 -1.1 95.0 1019.7 0.0 SSE 0.0 0.0 0.0
07:05 -1.1 95.0 1019.5 0.0 SSE 0.0 0.0 0.0
07:10 -1.1 95.0 1019.5 0.0 SSE 0.0 0.0 0.0
07:15 -1.2 96.0 1019.4 0.0 SSE 0.0 0.0 0.0
07:20 -1.3 96.0 1019.4 0.0 SSE 0.0 0.0 0.0
07:25 -1.2 96.0 1019.5 0.0 SSE 0.0 0.0 7.0
07:30 -1.2 96.0 1019.5 0.0 SSE 0.0 0.0 12.0
07:35 -1.2 96.0 1019.5 0.0 SSE 0.0 0.0 14.0
07:40 -1.1 96.0 1019.5 0.0 SSE 0.0 0.0 18.0
07:45 -1.1 96.0 1019.6 0.0 SSE 0.0 0.0 19.0
07:50 -1.1 96.0 1019.5 0.0 SSE 0.0 0.0 26.0
07:55 -1.0 96.0 1019.5 0.0 SSE 0.0 0.0 30.0
08:00 -1.0 96.0 1019.5 0.0 SSE 0.0 0.0 28.0
08:05 -1.0 96.0 1019.5 0.0 SSE 0.0 0.0 30.0
08:10 -1.0 96.0 1019.4 0.0 SSE 0.0 0.0 35.0
08:15 -0.9 96.0 1019.5 0.0 SSE 0.0 0.0 46.0
08:20 -0.9 96.0 1019.5 0.0 SSE 0.0 0.0 62.0
08:25 -0.8 96.0 1019.4 0.0 SSE 0.0 0.0 69.0
08:30 -0.7 96.0 1019.3 0.0 SSE 0.0 0.0 70.0
08:35 -0.4 96.0 1019.3 0.0 SSE 0.0 0.0 70.0
08:40 -0.3 96.0 1019.3 0.0 SSE 0.0 0.0 74.0
08:45 -0.1 96.0 1019.3 0.0 SSE 0.0 0.0 69.0
08:50 0.2 96.0 1019.3 0.0 SSE 0.0 0.0 63.0
08:55 0.3 96.0 1019.4 0.0 SSE 0.0 0.0 65.0
09:00 0.4 96.0 1019.2 0.0 SSE 0.0 0.0 77.0
09:05 0.6 96.0 1019.1 0.0 SSE 0.0 0.0 97.0
09:10 0.7 96.0 1019.1 0.0 SSE 0.0 0.0 116.0
09:15 0.9 97.0 1019.2 0.0 SSE 0.0 0.0 127.0
09:20 1.1 96.0 1019.1 0.0 SSE 0.0 0.0 127.0
09:25 1.2 96.0 1019.2 0.0 SSE 1.6 0.0 120.0
09:30 1.3 96.0 1019.1 0.0 SSE 1.6 0.0 111.0
09:35 1.4 96.0 1019.1 0.0 SSE 1.6 0.0 113.0
09:40 1.6 96.0 1019.1 0.0 SSE 0.0 0.0 121.0
09:45 1.8 97.0 1018.9 0.0 SSE 0.0 0.0 139.0
09:50 2.1 96.0 1018.6 0.0 SSE 0.0 0.0 169.0
09:55 2.3 97.0 1018.5 0.0 SSE 0.0 0.0 144.0
10:00 2.4 96.0 1018.6 0.0 SSE 0.0 0.0 243.0
10:05 2.6 96.0 1018.5 0.0 SSE 0.0 0.0 241.0
10:10 2.8 96.0 1018.5 0.0 SSE 0.0 0.0 264.0
10:15 3.1 96.0 1018.4 0.0 WNW 0.0 0.0 311.0
10:20 3.4 96.0 1018.3 1.6 NW 6.4 0.0 241.0
10:25 3.6 96.0 1018.3 0.0 NW 6.4 0.0 214.0
10:30 3.4 96.0 1018.2 0.0 NW 3.2 0.0 204.0
10:35 3.4 96.0 1018.0 0.0 NW 0.0 0.0 199.0
10:40 3.5 95.0 1017.7 0.0 NW 0.0 0.0 188.0
10:45 3.6 95.0 1017.8 0.0 NW 0.0 0.0 181.0
10:50 3.8 95.0 1017.7 0.0 NW 1.6 0.0 165.0
10:55 3.9 95.0 1017.7 0.0 NW 1.6 0.0 163.0
11:00 4.0 95.0 1017.4 0.0 NW 0.0 0.0 181.0
11:05 4.2 94.0 1017.1 0.0 NW 0.0 0.0 258.0
11:10 4.4 94.0 1016.9 0.0 NW 1.6 0.0 234.0
11:15 4.6 94.0 1017.0 0.0 N 4.8 0.0 185.0
11:20 4.7 93.0 1016.9 0.0 N 4.8 0.0 148.0
11:25 4.7 93.0 1016.8 0.0 N 4.8 0.0 132.0
11:30 4.8 92.0 1016.7 1.6 WNW 6.4 0.0 127.0
11:35 4.7 92.0 1016.6 0.0 WNW 6.4 0.0 146.0
11:40 4.7 91.0 1016.6 1.6 WNW 4.8 0.0 146.0
11:45 4.7 92.0 1016.8 0.0 WNW 3.2 0.0 149.0
11:50 4.7 92.0 1016.7 0.0 WNW 1.6 0.0 149.0
11:55 4.8 92.0 1016.5 0.0 WNW 1.6 0.0 149.0
12:00 4.8 91.0 1016.5 0.0 WNW 0.0 0.0 153.0
12:05 4.9 92.0 1016.3 0.0 WNW 0.0 0.0 155.0
12:10 5.1 92.0 1016.1 0.0 WNW 0.0 0.0 134.0
12:20 5.5 92.0 1016.0 0.0 WNW 0.0 0.0 127.0
12:25 5.7 91.0 1016.0 0.0 WNW 0.0 0.0 120.0
12:30 5.8 91.0 1016.0 0.0 WNW 0.0 0.0 109.0
12:45 6.3 90.0 1016.0 0.0 WNW 0.0 0.0 127.0
12:55 6.7 90.0 1015.8 0.0 WNW 0.0 0.0 134.0
13:00 6.8 90.0 1015.7 0.0 WNW 0.0 0.0 125.0
13:05 7.1 90.0 1015.7 0.0 WNW 0.0 0.0 125.0
13:10 7.3 90.0 1015.5 0.0 WNW 0.0 0.0 123.0
13:15 7.6 88.0 1015.5 0.0 WNW 0.0 0.0 111.0
13:20 7.8 85.0 1015.6 4.8 S 6.4 0.0 90.0
13:25 7.8 86.0 1015.6 0.0 NNE 6.4 0.0 74.0
13:30 7.8 86.0 1015.6 0.0 NNE 6.4 0.0 54.0
13:35 7.6 86.0 1015.4 0.0 NNE 1.6 0.0 42.0
13:40 7.5 87.0 1015.3 0.0 NNE 0.0 0.0 39.0
13:45 7.3 87.0 1015.3 3.2 N 3.2 0.0 37.0
13:50 7.1 87.0 1015.3 0.0 N 4.8 0.0 30.0
13:55 6.9 88.0 1015.4 0.0 N 4.8 0.0 26.0
14:00 6.8 88.0 1015.4 0.0 N 0.0 0.0 26.0
14:05 6.8 88.0 1015.3 0.0 N 0.0 0.0 25.0
14:10 6.8 88.0 1015.3 0.0 N 0.0 0.0 23.0
14:15 6.7 88.0 1015.2 0.0 N 0.0 0.0 21.0
14:20 6.7 89.0 1015.2 0.0 N 0.0 0.0 19.0
14:25 6.7 90.0 1015.1 0.0 N 0.0 0.0 26.0
14:30 6.8 90.0 1015.2 0.0 N 0.0 0.0 26.0
14:35 6.8 91.0 1015.2 0.0 S 4.8 0.0 28.0
14:40 6.8 91.0 1015.3 0.0 S 4.8 0.0 28.0
14:45 6.7 92.0 1015.3 0.0 S 0.0 0.0 28.0
14:50 6.7 92.0 1015.4 0.0 S 0.0 0.0 9.0
14:55 6.6 91.0 1015.5 3.2 NW 3.2 0.0 7.0
15:00 6.4 90.0 1015.4 0.0 NW 3.2 0.0 7.0
15:05 6.3 90.0 1015.2 0.0 NW 3.2 0.0 5.0
15:10 6.2 90.0 1015.5 0.0 NW 0.0 0.0 5.0
15:15 6.1 91.0 1015.5 0.0 NW 0.0 0.2 11.0
15:20 6.0 91.0 1015.4 0.0 NW 0.0 0.0 12.0
15:25 5.9 92.0 1015.2 0.0 SW 1.6 0.0 11.0
15:30 5.9 92.0 1015.2 1.6 SW 3.2 0.0 12.0
15:35 5.9 93.0 1015.4 0.0 SSW 3.2 0.0 19.0
15:40 5.9 93.0 1015.6 0.0 SSW 3.2 0.0 12.0
15:45 5.9 94.0 1016.0 0.0 SSW 1.6 0.0 7.0
15:50 5.9 94.0 1016.0 0.0 S 3.2 0.0 7.0
15:55 6.0 94.0 1015.7 3.2 SE 6.4 0.0 5.0
16:00 6.1 94.0 1015.7 3.2 S 6.4 0.0 0.0
16:05 6.1 94.0 1015.8 0.0 S 6.4 0.0 5.0
16:10 6.1 94.0 1016.0 0.0 S 6.4 0.0 0.0
16:15 6.1 94.0 1016.3 0.0 S 1.6 0.0 0.0
16:20 6.1 94.0 1016.1 1.6 SSE 8.0 0.0 0.0
16:25 6.1 94.0 1016.1 0.0 S 8.0 0.0 0.0
16:30 6.1 94.0 1016.5 0.0 S 6.4 0.0 0.0
16:35 6.1 94.0 1017.0 0.0 S 3.2 0.0 0.0
16:40 6.1 94.0 1017.2 0.0 S 3.2 0.0 0.0
16:45 6.0 94.0 1017.0 0.0 S 1.6 0.0 0.0
16:50 6.0 94.0 1016.8 0.0 S 4.8 0.0 0.0
16:55 5.9 94.0 1017.1 0.0 S 4.8 0.0 0.0
17:00 5.9 94.0 1017.0 0.0 SSE 6.4 0.0 0.0
17:05 5.8 93.0 1016.8 0.0 S 4.8 0.0 0.0
17:10 5.6 93.0 1017.1 0.0 S 4.8 0.0 0.0
17:15 5.4 93.0 1017.2 0.0 S 0.0 0.0 0.0
17:20 5.3 94.0 1017.4 0.0 S 0.0 0.0 0.0
17:25 5.3 94.0 1017.5 0.0 S 0.0 0.0 0.0
17:30 5.1 93.0 1017.4 0.0 S 1.6 0.0 0.0
17:35 4.9 93.0 1017.4 0.0 S 1.6 0.0 0.0
17:40 4.7 93.0 1017.3 0.0 S 1.6 0.0 0.0
17:45 4.6 93.0 1017.3 0.0 S 1.6 0.0 0.0
17:50 4.3 93.0 1017.4 0.0 S 1.6 0.0 0.0
17:55 4.3 94.0 1017.3 0.0 S 1.6 0.0 0.0
18:00 4.1 93.0 1017.4 0.0 S 1.6 0.0 0.0
18:05 3.8 93.0 1017.5 0.0 S 1.6 0.0 0.0
18:10 3.7 94.0 1017.6 0.0 S 1.6 0.0 0.0
18:15 3.6 94.0 1017.6 0.0 S 0.0 0.0 0.0
18:20 3.3 93.0 1017.5 0.0 S 1.6 0.0 0.0
18:25 3.2 94.0 1017.7 0.0 S 1.6 0.0 0.0
18:30 2.9 94.0 1017.7 0.0 S 1.6 0.0 0.0
18:35 2.8 94.0 1017.5 3.2 S 3.2 0.0 0.0
18:40 2.5 93.0 1017.4 0.0 S 3.2 0.0 0.0
18:45 2.3 94.0 1017.4 0.0 S 3.2 0.0 0.0
18:50 2.2 94.0 1017.6 0.0 S 1.6 0.0 0.0
18:55 1.9 94.0 1017.7 0.0 S 1.6 0.0 0.0
19:00 1.9 94.0 1017.8 0.0 S 1.6 0.0 0.0
19:05 1.8 94.0 1018.0 0.0 S 1.6 0.0 0.0
19:10 1.7 94.0 1018.1 0.0 S 1.6 0.0 0.0
19:15 1.7 94.0 1018.4 0.0 S 0.0 0.0 0.0
19:20 1.6 95.0 1018.5 0.0 S 0.0 0.0 0.0
19:25 1.7 95.0 1018.5 0.0 S 1.6 0.0 0.0
19:30 1.6 95.0 1018.4 0.0 S 1.6 0.0 0.0
19:35 1.5 95.0 1018.2 0.0 S 0.0 0.0 0.0
19:40 1.6 95.0 1018.1 0.0 S 0.0 0.0 0.0
19:45 1.4 95.0 1017.7 0.0 S 0.0 0.0 0.0
19:50 1.3 95.0 1017.8 0.0 S 1.6 0.0 0.0
19:55 1.3 95.0 1017.7 0.0 S 1.6 0.0 0.0
20:00 1.2 95.0 1017.4 1.6 S 3.2 0.0 0.0
20:05 1.1 95.0 1017.6 0.0 S 3.2 0.0 0.0
20:10 1.2 95.0 1017.8 0.0 S 3.2 0.0 0.0
20:15 1.3 95.0 1018.1 0.0 S 0.0 0.0 0.0
20:20 1.2 95.0 1018.1 0.0 S 1.6 0.0 0.0
20:25 1.1 95.0 1018.0 0.0 S 3.2 0.0 0.0
20:30 0.9 95.0 1018.1 0.0 S 3.2 0.0 0.0
20:35 0.9 95.0 1017.9 1.6 S 1.6 0.0 0.0
20:40 0.9 95.0 1017.7 0.0 S 4.8 0.0 0.0
20:45 0.8 95.0 1017.9 0.0 S 4.8 0.0 0.0
20:50 0.8 95.0 1017.8 0.0 S 0.0 0.2 0.0
20:55 0.7 95.0 1017.6 0.0 S 1.6 0.0 0.0
21:00 0.7 95.0 1017.6 0.0 S 1.6 0.0 0.0
21:05 0.8 95.0 1017.4 0.0 S 4.8 0.0 0.0
21:10 0.9 95.0 1017.5 0.0 SSE 6.4 0.0 0.0
21:15 0.9 95.0 1017.5 1.6 SSE 6.4 0.0 0.0
21:20 0.9 95.0 1017.4 0.0 SSE 4.8 0.0 0.0
21:25 1.1 96.0 1017.6 0.0 SSW 6.4 0.0 0.0
21:30 1.3 96.0 1017.5 0.0 SSW 6.4 0.0 0.0
21:35 1.4 96.0 1017.7 0.0 SSW 0.0 0.0 0.0
21:40 1.7 96.0 1017.7 1.6 SSW 3.2 0.0 0.0
21:45 1.7 96.0 1017.6 0.0 SSW 3.2 0.0 0.0
21:50 1.7 96.0 1017.7 0.0 SSW 3.2 0.0 0.0
21:55 1.6 96.0 1017.7 0.0 SSW 3.2 0.0 0.0
22:00 1.6 96.0 1017.9 0.0 SSW 0.0 0.0 0.0
22:05 1.7 96.0 1017.8 0.0 SSW 0.0 0.0 0.0
22:10 1.7 96.0 1017.8 0.0 SSW 0.0 0.0 0.0
22:15 1.8 96.0 1017.7 1.6 SSW 6.4 0.0 0.0
22:20 1.8 96.0 1017.6 0.0 SSW 6.4 0.0 0.0
22:25 1.8 96.0 1017.6 0.0 SSW 1.6 0.0 0.0
Máxima 7.8 97.0 1022.9 4.8 S 8.0 0.2 311.0
Mínima -1.4 85.0 1015.1
Total 0.4